www.pogodaiklimat.ru

Погода и климат >> Архив погоды >> Таиланд >> Сукхотаи


ПОГОДА в Сукхотаи

  • Прогноз погоды в Сукхотаи
  • Монитор погоды в Сукхотаи

АРХИВ ПОГОДЫ в Сукхотаи

Время (UTC), дата Ветер
(напр.,м/с)
 
Видим.   Явления Облачность Т
(С)
Тd
(С)
f
(%)
Тe
(С)
Тes
(С)
Комфортность P
(гПа)
Po
(гПа)
Тmin
(С)
Tmax
(С)
R
(мм)
R24
(мм)
S
(см)
09 12.02 В 6 8000 м мгла 6/1 600 м
[Cu hum Ac trans Cs]
+32.2 +21.1 52 +40 +41 очень
душно
1015.3 1009.5
12 12.02 штиль 0 8000 м дымка 6/3 600 м
[Sc Ac lent Cs]
+28.5 +22.9 72 +38 +38 очень
душно
1015.6 1009.8 +33.0
15 12.02 штиль 0 8000 м дымка 3/1 600 м
[Sc Cs]
+26.0 +22.6 82 +34 +34 очень
душно
1017.1 1011.2
18 12.02 штиль 0 8000 м дымка 3/0
[Cs]
+24.4 +22.2 88 +32 +32 очень
душно
1017.6 1011.7
21 12.02 штиль 0 8000 м дымка 3/0
[Cs]
+23.0 +21.5 91 +31 +31 очень
душно
1016.7 1010.8
00 13.02 штиль 0 4000 м дымка 3/0
[Ci fib]
+22.2 +21.1 93 +29 +29 очень
душно
1017.7 1011.8 +21.2
03 13.02 штиль 0 8000 м дымка 3/0
[Ci fib]
+28.2 +22.0 69 +36 +50 очень
душно
1018.2 1012.3
06 13.02 штиль 0 10 км 3/0
[Ci fib]
+34.0 +21.5 48 +42 +62 опасность
перегрева
1015.0 1009.3
09 13.02 штиль 0 10 км 3/0
[Ci fib]
+33.0 +21.1 50 +41 +47 опасность
перегрева
1011.8 1006.1
12 13.02 Ю 3 10 км 3/0
[Ci fib]
+30.0 +22.8 65 +40 +40 очень
душно
1012.2 1006.4 +35.8
15 13.02 ЮВ 2 10 км 3/0
[Ci fib]
+27.0 +22.1 75 +35 +35 очень
душно
1013.1 1007.3
18 13.02 штиль 0 8000 м дымка 3/0
[Ci fib]
+25.0 +22.0 83 +32 +32 очень
душно
1012.7 1006.8
21 13.02 штиль 0 8000 м дымка 3/0
[Ci fib]
+23.5 +22.1 92 +30 +30 очень
душно
1011.7 1005.8
00 14.02 штиль 0 2000 м дымка 3/0
[Ci fib]
+23.0 +22.2 95 +31 +32 очень
душно
1012.9 1007.0 +22.6
03 14.02 ЮВ 2 4000 м дымка 3/0
[Ci fib]
+28.6 +22.9 71 +38 +48 очень
душно
1014.6 1008.8
06 14.02 В 4 8000 м мгла 3/0
[Ci fib]
+34.0 +23.2 53 +44 +55 опасность
перегрева
1012.3 1006.6
09 14.02 В 2 8000 м мгла 3/0
[Ci fib]
+34.7 +23.2 51 +45 +50 опасность
перегрева
1009.2 1003.5
12 14.02 ЮВ 2 8000 м дымка 3/0
[Ci fib]
+30.1 +24.4 72 +42 +42 опасность
перегрева
1010.3 1004.5 +35.4
15 14.02 штиль 0 8000 м дымка 3/0
[Ci fib]
+27.2 +24.8 87 +39 +39 очень
душно
1012.3 1006.5
18 14.02 С 2 6000 м дымка 3/0
[Ci fib]
+25.0 +24.1 95 +34 +34 очень
душно
1012.0 1006.1
21 14.02 штиль 0 6000 м дымка 3/0
[Ci fib]
+24.5 +23.8 96 +33 +33 очень
душно
1011.1 1005.2
00 15.02 СВ 2 1000 м дымка 3/0
[Ci fib]
+24.0 +23.3 96 +32 +32 очень
душно
1012.9 1007.0 +23.5
03 15.02 Ю 6 4000 м дымка 3/0
[Ci fib]
+28.2 +24.5 80 +40 +44 очень
душно
1014.7 1008.9
06 15.02 ЮВ 2 8000 м мгла 4/3 600 м
[Cu hum Cs]
+33.0 +24.3 60 +45 +56 опасность
перегрева
1012.6 1006.9
09 15.02 ЮВ 2 8000 м мгла 8/3 600 м
[Sc Ac trans Cs]
+32.7 +24.6 62 +45 +48 опасность
перегрева
1009.8 1004.1
12 15.02 штиль 0 8000 м дымка 8/3 600 м
[Cu Sc Ac trans Cs]
+30.0 +25.3 76 +44 +44 опасность
перегрева
1011.0 1005.3 +34.7
15 15.02 ЮВ 2 8000 м дымка 8/3 600 м
[Sc Ac trans Cs]
+28.0 +25.4 86 +41 +41 опасность
перегрева
1013.0 1007.2
18 15.02 штиль 0 8000 м дымка 8/3 600 м
[Sc Ac trans Cs]
+26.5 +24.6 89 +37 +37 очень
душно
1012.6 1006.8
21 15.02 штиль 0 8000 м дымка 10/4 600 м
[Sc Ac trans Cs]
+25.5 +24.2 93 +35 +35 очень
душно
1012.2 1006.3
00 16.02 ЮВ 3 2000 м дымка 10/4 600 м
[Sc Ac trans Cs]
+25.1 +23.5 91 +34 +34 очень
душно
1014.0 1008.1 +24.0
03 16.02 Ю 3 6000 м гроза без осадков 10/4 300 м
[Cb cap Ac und Cs]
+28.5 +24.2 78 +40 +43 очень
душно
1015.3 1009.5
06 16.02 ЮВ 3 8000 м дымка {гроза} 10/4 600 м
[Cu Sc Ac und Cs]
+31.6 +24.3 65 +44 +48 опасность
перегрева
1013.6 1007.8
09 16.02 ЮВ 4 8000 м мгла 10/4 600 м
[Cu Sc Ac lent Cs]
+32.5 +23.9 61 +44 +45 опасность
перегрева
1009.6 1003.9
12 16.02 штиль 0 8000 м дымка 10/4 600 м
[Cu Sc Ac trans Cs]
+27.5 +23.9 81 +38 +38 очень
душно
1009.7 1004.0 +33.3
15 16.02 СЗ 2 8000 м гроза без осадков 10/4 600 м
[Cb cap Ac und Cs]
+23.7 +21.9 90 +31 +31 очень
душно
1011.9 1006.0 0.5
18 16.02 штиль 0 8000 м дымка {гроза} 10/4 600 м
[Cu Sc Ac und Cs]
+23.0 +21.5 91 +31 +31 очень
душно
1011.6 1005.7 0.5
21 16.02 В 2 8000 м дымка 9/4 600 м
[Sc Ac trans Cs]
+22.2 +21.3 95 +29 +29 очень
душно
1011.0 1005.1
00 17.02 штиль 0 2000 м дымка 10/4 600 м
[Cu Sc Ac lent Cs]
+22.3 +21.5 95 +29 +29 очень
душно
1012.4 1006.5 +21.2 0.5
03 17.02 ЮВ 3 8000 м дымка 8/3 600 м
[Cu Sc Ac lent Cs]
+27.4 +22.4 74 +36 +40 очень
душно
1014.1 1008.3
06 17.02 ЮВ 6 8000 м дымка 8/3 600 м
[Cu Sc Ac lent Cs]
+31.3 +24.0 65 +43 +46 опасность
перегрева
1011.2 1005.5
09 17.02 ЮВ 5 8000 м мгла 4/3 600 м
[Cu med, cong Ac lent Cs]
+32.3 +22.9 58 +42 +44 опасность
перегрева
1007.4 1001.7
12 17.02 ЮВ 4 8000 м дымка 3/1 600 м
[Cu hum Cs]
+29.9 +22.6 65 +39 +39 очень
душно
1008.1 1002.4 +33.4
15 17.02 ЮВ 3 8000 м дымка 3/0
[Cs]
+26.2 +22.6 81 +35 +35 очень
душно
1010.3 1004.5
18 17.02 В 3 8000 м дымка ясно +24.2 +22.1 88 +31 +31 очень
душно
1010.5 1004.6
21 17.02 Ю 3 8000 м дымка ясно +22.9 +21.5 92 +31 +31 очень
душно
1010.1 1004.2
00 18.02 штиль 0 2000 м дымка ясно +21.5 +20.9 96 +27 +27 душно 1011.3 1005.4 +20.5
03 18.02 штиль 0 8000 м дымка ясно +28.2 +21.6 67 +36 +51 опасность
солнечного
удара
1013.0 1007.2
06 18.02 ЮВ 6 10 км 3/3 600 м
[Cu med, cong]
+33.3 +20.6 47 +40 +45 очень
душно
1011.2 1005.6
09 18.02 ЮВ 6 10 км 6/3 600 м
[Cu Sc Cs]
+33.7 +18.9 42 +39 +40 очень
душно
1007.8 1002.2
12 18.02 Ю 2 10 км 4/1 600 м
[Cu hum Cs]
+28.2 +21.6 67 +36 +36 очень
душно
1008.4 1002.6 +35.0
15 18.02 Ю 3 10 км 1/0
[Ci fib]
+26.1 +19.3 66 +31 +31 очень
душно
1010.7 1004.8
18 18.02 З 5 10 км 1/0
[Ci fib]
+25.1 +20.5 76 +31 +31 очень
душно
1011.3 1005.4
21 18.02 З 4 10 км 3/0
[Ac trans Ci fib]
+24.5 +19.0 71 +29 +29 душно 1010.5 1004.6
00 19.02 ЮЗ 2 3000 м дымка 5/4 600 м
[Sc Ac lent Cs]
+23.0 +20.7 87 +30 +30 очень
душно
1012.6 1006.7 +21.9
03 19.02 В 5 8000 м дымка 3/0
[Cs]
+29.2 +23.1 70 +39 +45 очень
душно
1013.9 1008.1
06 19.02 СВ 5 8000 м мгла 3/3 600 м
[Cu hum Ci fib]
+33.0 +21.5 51 +41 +47 опасность
перегрева
1012.5 1006.8

 

Местоположение метеостанции Сукхотаи (Таиланд): широта 17.10 долгота 99.80 высота над уровнем моря 50 м.

В архиве по умолчанию представлена погода в Сукхотаи за последнюю неделю. Архивные данные за месяц целиком и за предыдущие месяцы, начиная с января 2011 года, Вы можете получить, выбрав интересующий диапазон дат из раскрывающегося списка и нажав кнопку "Ввод!".


*Определитесь, кто Вы:
робот инопланетянин человек

Внимание! Время в таблицах - всемирное. Для получения местного времени необходимо прибавить поправку, которая равна 7 ч.

Смотрите также архив погоды в соседних городах и на ближайших метеорологических станциях:

Погода в Си Самронг Агромете (Таиланд) (11 км)
Погода в Пхитсанулоке (Таиланд) (61 км)
Погода в Уттарадите (Таиланд) (66 км)
Погода в Таке (Таиланд) (73 км)
Погода в Кампхэнгпхете (Таиланд) (75 км)
Погода в Тоене (Таиланд) (84 км)
Погода на Плотине Пумипона (Таиланд) (85 км)
Погода в Пичит Агромете (Таиланд) (90 км)
Погода в Дои Му Со Агромете (Таиланд) (100 км)
Погода в Прхрэ (Таиланд) (125 км)

Пояснения к столбцам:

Ветер - указаны скорость ветра в м/с - средняя за 10 мин, порывы в срок и между сроками (в фигурных скобках) и направление, откуда дует ветер: С - северный, СВ - северо-восточный, В - восточный, ЮВ - юго-восточный, Ю - южный, ЮЗ - юго-западный, З - западный, СЗ - северо-западный.
Видимость - горизонтальная дальность видимости в метрах или километрах. При видимости от 1 до 10 км при отсутствии осадков обычно наблюдается дымка, при ухудшении видимости до 1 км и менее - туман. В сухую погоду видимость может ухудшаться дымом, пылью или мглою.
Явления - указаны атмосферные явления, наблюдавшиеся в срок или в последний час перед сроком; фигурными скобками обозначены явления, наблюдавшиеся между сроками (за 1-3 часа до срока); квадратными скобками обозначены град или гололедные отложения с указанием их диаметра в мм.
Облачность - указаны через наклонную черту общая и нижняя облачность в баллах и высота нижней границы облаков в метрах; квадратными скобками обозначены формы облаков: Ci - перистые, Cs - перисто-слоистые, Cc - перисто-кучевые, Ac - высококучевые, As - высокослоистые, Sc - слоисто-кучевые, Ns - слоисто-дождевые, Cu - кучевые, Cb - кучево-дождевые. Подробнее классификацию облаков см. в Атласе облаков (PDF).
T - Температура воздуха - температура, измеренная на высоте 2 м над землей.
Td - Температура точки росы - температура, при понижении до которой содержащийся в воздухе водяной пар достигнет насыщения.
f - Относительная влажность воздуха - влажноcть воздуха, измеренная на высоте 2 м над землей.
Te - Эффективная температура - температура, которую ощущает одетый по сезону человек в тени. Характеристика душности погоды. При расчете учитывается влияние влажности воздуха и скорости ветра на теплоощущения человека.
Tes - Эффективная температура на солнце - температура, которую ощущает человек, с поправкой на солнечный нагрев. Характеристика знойности погоды. Зависит от высоты солнца над горизонтом, облачности и скорости ветра. Ночью, в пасмурную погоду, а также при ветре 12 м/с и более поправка равна нулю.
P - Атмосферное давление - приведенное к уровню моря атмосферное давление.
Po - Атмосферное давление - измеренное на уровне метеостанции атмосферное давление.
Tmin - Минимальная температура - минимум температуры воздуха на высоте 2 м над землей.
Tmax - Максимальная температура - максимум температуры воздуха на высоте 2 м над землей.
R - Количество осадков - Количество выпавших осадков за период времени, мм. При наведении курсора мыши на число - период времени, за который выпало указанное количество осадков.
R24 - Количество осадков - Количество выпавших осадков за 24 часа, мм.
S - Снежный покров - Высота снежного покрова, см. При наведении курсора мыши на число - состояние снежного покрова и степень покрытия местности в баллах.